map of LDB home
Great Circle Mapper logo
LDB - Airport
Location
City:  Londrina, Paraná, Brazil
ICAO / IATA:SBLO / LDB

Details
Type:Airport (Aerodrome, Airfield)
Use:Public/Civil
Latitude:23°20'01"S (-23.333624)
Longitude:51°07'48"W (-51.130071)
Datum:WGS 1984
Elevation:1867 ft (569 m)
Variation:18.6°W (WMM2015 magnetic declination)
Runways:1
Longest:6890 × 148 ft (2100 × 45 m), paved

Time
Time Zone:UTC-3 (DST-2)
Local Time:

Weather
METAR:SBLO 201600Z 05008KT 9999 BKN020 31/22 Q1011
TAF:SBLO 201400Z 2018/2106 03008KT 9999 BKN025 FEW035TCU TX33/2018Z T N24/2106Z PROB40
TEMPO 2018/2023 8000 TSRA BKN025 FEW040CB
BECMG 2100/2102 SCT 025
RMK PEL

Related Locations
Nearby:
Farthest:OKA: 12220 mi / 19667 km
Okinawa [Naha AB], Ryukyu Island, JP

Find:

   beyond  
but within

Other Information
Maps:
NOTAMs:
Links:
Sources:

  
flag of Brazil
flag of Paraná
  

Sectional Chart

Flight Planning
at skyvector.com

Satellite Image

Google Maps Satellite View

 

Copyright © 2004-2014 Karl L. Swartz. All rights reserved.
The Great Circle Mapper name and logo are trademarks of the Great Circle Mapper.
All other trademarks mentioned herein belong to their respective owners.
Please see credits for attibutions and further copyright information.

  Follow gcmap on Facebook Follow gcmap on Twitter

hCard Microformat

Geo Microformat